ATLAS 5 CENTAUR DEB, 46667

Orbit data source: Space-Track

ATLAS 5 CENTAUR DEB, 46667 is space debris in HEO originally from a launch on Wed, 17 Oct 2018 UTC launched from the Air Force Eastern Test Range (AFETR). Debris objects in space refer to the collection of defunct objects orbiting the Earth. Examples of debris include non-operational satellites, rocket bodies, and fragments generated from explosions, collisions, or faulty payload assembly.

Loading next visibility...
Identifier
46667, 2018-079CV
Orbit
HEO
Country
Flag of USUS
Related business
Flag of USUnited Launch Alliance/Lockheed Martin (US)
Manufacturer
ULA Decatur
Mission
Spacecraft
Bus & Motor
Unknown
Mass
Unknown
Launch date (UTC)
2018-10-17 (8 years ago)
Launch vehicle
Unknown
Launch site
Air Force Eastern Test Range (AFETR)
Object type
Payload
Rocket body
Debris
Shape & HBR
Unknown shape, 1.1 m
Radar Cross Section
RCS unknown

Expand to show TLE details & history
Last TLE update: 1 week ago

TLE from 1 week ago
0 ATLAS 5 CENTAUR DEB
1 46667U 18079CV  26227.10161975 -.00000140  00000-0  00000-0 0  9999
2 46667  13.5640 359.5493 4525927  28.2556 350.1375  1.95377910 41720
Epoch: 2026-08-15T02:26Z
TLE epoch observation values (Epoch: 2026-08-15T02:26:19.946Z)
Latitude
0.00005°
Longitude
-0.53029°
Altitude
8,999.745 km
Speed
6.09 km/s
True Right ascension
23h 58m 16s
True Declination
0° 00' 00"
Sunlit
Object was in daylight at epoch
Visualization orbit readout
Latitude
Unknown
Longitude
Unknown
Altitude
Unknown
Speed
Unknown
Apparent Right ascension
Unknown
Apparent Declination
Unknown
Sunlit
N/A
Visualization observer readout
Local Sidereal Time
16:24:07
Azimuth
Unknown
Elevation
Unknown
Doppler factor
Unknown
Orbital elements
Apogee altitude
32,886.013 km
Perigee altitude
8,418.497 km
Semi-major axis
27,030.392 km
Eccentricity
0.45259
Inclination
13.564°
RAAN
359.5493°
Arg. of periapsis
28.2556°
True anomaly
331.40741°
Mean anomaly
350.1375°
Eccentric anomaly
342.21813°
Mean motion
0.48839 °/min
Orbital period
737.12 mins
BSTAR
0
Loading maneuver chart data...
Computing Atmospheric mass density...

Documentation

Showing up to 5 results
|